User: anonymous   Login
Location: Unspecified
(0.0000°N, 0.0000°E)
Time: 00:39:47
(UTC+00:00)
Language:

TRS 6 - Orbit

View from above orbital plane
View from above orbital plane
View from above satellite
View from above satellite

Ground track
Ground track

The orbit data is extracted from the following two-line orbital elements,

1   608U 63014C   19079.36018872 +.00000016 +00000-0 +59688-2 0  9994
2   608 087.3134 085.9737 0073663 214.9571 144.6433 08.65286017764639
Epoch (UTC): 20 March 2019 08:38:40
Eccentricity: 0.0073663
inclination: 87.3134°
perigee height: 3570 km
apogee height: 3718 km
right ascension of ascending node: 85.9737°
argument of perigee: 214.9571°
revolutions per day: 8.65286017
mean anomaly at epoch: 144.6433°
orbit number at epoch: 76463

The dashed part of the orbit path shows where the satellite is in the earth's shadow,  

DLR